Location: *
(46.0770°N, 1.6444°E)
Time: 22:23:46
(UTC+00:00)

Genesis I - Pass Details

Date: 16 September 2019
Orbit: 488 x 537 km, 64.5° (Epoch: 20 October)

Event Time Altitude Azimuth Distance (km) Brightness Sun altitude
Rises 18:39:58 0° 317° (NW) 2,662 7.8 -7.1°
Reaches altitude 10° 18:42:15 10° 311° (NW) 1,761 7.0 -7.5°
Maximum altitude 18:45:58 41° 240° (WSW) 753 4.5 -8.1°
Drops below altitude 10° 18:49:37 10° 169° (S) 1,719 5.6 -8.7°
Sets 18:51:49 0° 163° (SSE) 2,591 6.5 -9.1°
